FW7275 Weather Reports


Display with metric or nautical units.
time (UTC)temp
F
wind
direction
speed
MPH
gust
MPH
rain 1hr
in
rain 24hr
in
rain mn
in
humidity
%
barometer
mb
20260901204026 63 0 0.0 0.0 0.00 0.00 0.00 78
20260901203031 63 0 0.0 0.0 0.00 0.00 0.00 77
20260901202031 63 0 0.0 0.0 0.00 0.00 0.00 77
20260901201030 64 0 0.0 0.0 0.00 0.00 0.00 76
20260901200035 64 0 0.0 0.0 0.00 0.00 0.00 76
20260901193034 64 0 0.0 0.0 0.00 0.00 0.00 73
20260901192027 65 0 0.0 0.0 0.00 0.00 0.00 73
20260901191025 65 0 0.0 0.0 0.00 0.00 0.00 73
20260901190033 67 0 0.0 0.0 0.00 0.00 0.00 70
20260901185030 67 0 0.0 0.0 0.00 0.00 0.00 70
20260901184031 70 0 0.0 0.0 0.00 0.00 0.00 65
20260901183027 70 0 0.0 0.0 0.00 0.00 0.00 65
20260901182028 70 0 0.0 0.0 0.00 0.00 0.00 65
20260901181026 70 0 0.0 0.0 0.00 0.00 0.00 65
20260901180040 70 0 0.0 0.0 0.00 0.00 0.00 65
20260901174031 72 0 0.0 0.0 0.00 0.00 0.00 60
20260901173036 73 0 0.0 0.0 0.00 0.00 0.00 57
20260901172024 74 0 0.0 0.0 0.00 0.00 0.00 55
20260901171024 76 0 0.0 0.0 0.00 0.00 0.00 51
20260901170037 77 0 0.0 0.0 0.00 0.00 0.00 49
20260901165030 77 0 0.0 0.0 0.00 0.00 0.00 47
20260901164033 77 0 0.0 0.0 0.00 0.00 0.00 46
20260901163039 78 0 0.0 0.0 0.00 0.00 0.00 46
20260901162029 80 0 0.0 0.0 0.00 0.00 0.00 44
20260901160044 79 0 0.0 0.0 0.00 0.00 0.00 45
20260901155027 79 0 0.0 0.0 0.00 0.00 0.00 45
20260901154026 79 0 0.0 0.0 0.00 0.00 0.00 44
20260901153038 78 0 0.0 0.0 0.00 0.00 0.00 45
20260901151025 80 0 0.0 0.0 0.00 0.00 0.00 43
20260901150039 80 0 0.0 0.0 0.00 0.00 0.00 43
20260901145027 80 0 0.0 0.0 0.00 0.00 0.00 43
20260901144027 80 0 0.0 0.0 0.00 0.00 0.00 43
20260901143035 80 0 0.0 0.0 0.00 0.00 0.00 43
20260901142031 80 0 0.0 0.0 0.00 0.00 0.00 44
20260901140041 80 0 0.0 0.0 0.00 0.00 0.00 43
20260901135026 82 0 0.0 0.0 0.00 0.00 0.00 42
20260901133027 81 0 0.0 0.0 0.00 0.00 0.00 43
20260901132030 81 0 0.0 0.0 0.00 0.00 0.00 44
20260901131028 83 0 0.0 0.0 0.00 0.00 0.00 42
20260901130051 83 0 0.0 0.0 0.00 0.00 0.00 42
20260901125032 82 0 0.0 0.0 0.00 0.00 0.00 43
20260901124027 81 0 0.0 0.0 0.00 0.00 0.00 43
20260901123042 80 0 0.0 0.0 0.00 0.00 0.00 43
20260901120046 79 0 0.0 0.0 0.00 0.00 0.00 46
20260901115023 77 0 0.0 0.0 0.00 0.00 0.00 48
20260901114031 79 0 0.0 0.0 0.00 0.00 0.00 46
20260901113035 80 0 0.0 0.0 0.00 0.00 0.00 46
20260901112043 79 0 0.0 0.0 0.00 0.00 0.00 48
20260901111024 80 0 0.0 0.0 0.00 0.00 0.00 46
20260901110031 80 0 0.0 0.0 0.00 0.00 0.00 46
20260901105022 80 0 0.0 0.0 0.00 0.00 0.00 46
20260901104036 79 0 0.0 0.0 0.00 0.00 0.00 48
20260901102058 79 0 0.0 0.0 0.00 0.00 0.00 49
20260901101027 78 0 0.0 0.0 0.00 0.00 0.00 50
20260901100032 80 0 0.0 0.0 0.00 0.00 0.00 49
20260901093121 80 0 0.0 0.0 0.00 0.00 0.00 50
20260901092047 80 0 0.0 0.0 0.00 0.00 0.00 50
20260901091046 80 0 0.0 0.0 0.00 0.00 0.00 50
20260901090047 80 0 0.0 0.0 0.00 0.00 0.00 51
20260901085022 78 0 0.0 0.0 0.00 0.00 0.00 50
20260901084035 78 0 0.0 0.0 0.00 0.00 0.00 52
20260901083031 77 0 0.0 0.0 0.00 0.00 0.00 53
20260901081024 76 0 0.0 0.0 0.00 0.00 0.00 55
20260901080034 75 0 0.0 0.0 0.00 0.00 0.00 57
20260901075025 74 0 0.0 0.0 0.00 0.00 0.00 59
20260901074024 74 0 0.0 0.0 0.00 0.00 0.00 59
20260901073038 74 0 0.0 0.0 0.00 0.00 0.00 60
20260901072029 72 0 0.0 0.0 0.00 0.00 0.00 61
20260901071025 70 0 0.0 0.0 0.00 0.00 0.00 64
20260901070037 70 0 0.0 0.0 0.00 0.00 0.00 64
20260901065027 69 0 0.0 0.0 0.00 0.00 0.00 67
20260901064027 68 0 0.0 0.0 0.00 0.00 0.00 69
20260901063035 67 0 0.0 0.0 0.00 0.00 0.00 70
20260901062030 63 0 0.0 0.0 0.00 0.00 0.00 77
20260901061033 60 0 0.0 0.0 0.00 0.00 0.00 79
20260901055024 56 0 0.0 0.0 0.00 0.00 0.00 85
20260901053038 56 0 0.0 0.0 0.00 0.00 0.00 85
20260901052031 55 0 0.0 0.0 0.00 0.00 0.00 85
20260901050029 55 0 0.0 0.0 0.00 0.00 0.00 85
20260901044021 55 0 0.0 0.0 0.00 0.00 0.00 85
20260901043028 56 0 0.0 0.0 0.00 0.00 0.00 84
20260901042021 56 0 0.0 0.0 0.00 0.00 0.00 84
20260901041026 57 0 0.0 0.0 0.00 0.00 0.00 83
20260901040029 57 0 0.0 0.0 0.00 0.00 0.00 83
20260901035027 58 0 0.0 0.0 0.00 0.00 0.00 82
20260901034031 58 0 0.0 0.0 0.00 0.00 0.00 82
20260901033025 58 0 0.0 0.0 0.00 0.00 0.00 82
20260901031026 59 0 0.0 0.0 0.00 0.00 0.00 81
20260901030034 59 0 0.0 0.0 0.00 0.00 0.00 81
20260901025032 59 0 0.0 0.0 0.00 0.00 0.00 80
20260901024033 59 0 0.0 0.0 0.00 0.00 0.00 80
20260901023026 59 0 0.0 0.0 0.00 0.00 0.00 79
20260901022023 59 0 0.0 0.0 0.00 0.00 0.00 80
20260901020029 60 0 0.0 0.0 0.00 0.00 0.00 79
20260901015030 60 0 0.0 0.0 0.00 0.00 0.00 79
20260901013025 60 0 0.0 0.0 0.00 0.00 0.00 78
20260901012027 60 0 0.0 0.0 0.00 0.00 0.00 78
20260901011028 60 0 0.0 0.0 0.00 0.00 0.00 77
20260901010029 60 0 0.0 0.0 0.00 0.00 0.00 77
20260901005018 60 0 0.0 0.0 0.00 0.00 0.00 76
20260901004026 60 0 0.0 0.0 0.00 0.00 0.00 75
20260901003034 60 0 0.0 0.0 0.00 0.00 0.00 74
20260901002033 61 0 0.0 0.0 0.00 0.00 0.00 73
20260901001021 61 0 0.0 0.0 0.00 0.00 0.00 73
20260901000036 62 0 0.0 0.0 0.00 0.00 0.00 71
20260831235026 63 0 0.0 0.0 0.00 0.00 0.04 70
20260831234026 64 0 0.0 0.0 0.00 0.00 0.04 69
20260831232025 64 0 0.0 0.0 0.00 0.00 0.04 67
20260831231028 65 0 0.0 0.0 0.00 0.00 0.04 66
20260831225031 65 0 0.0 0.0 0.00 0.00 0.04 66
20260831224027 66 0 0.0 0.0 0.00 0.00 0.04 67
20260831223029 66 0 0.0 0.0 0.00 0.00 0.04 68
20260831222030 66 0 0.0 0.0 0.00 0.00 0.04 68
20260831221025 66 0 0.0 0.0 0.00 0.00 0.04 69
20260831220055 66 0 0.0 0.0 0.00 0.00 0.04 70
20260831215035 66 0 0.0 0.0 0.00 0.00 0.04 70
20260831212023 65 0 0.0 0.0 0.00 0.00 0.04 72
20260831211021 64 0 0.0 0.0 0.00 0.00 0.04 73
20260831210034 64 0 0.0 0.0 0.00 0.00 0.04 74
20260831205034 64 0 0.0 0.0 0.00 0.00 0.04 73